Location: Klein M�hlingen
(51.9472°N, 11.7453°E)
Time: 18:16:06
(UTC+00:00)

Cosmos 1812 Rocket - Pass Details

Date: 09 April 2020
Orbit: 607 x 631 km, 82.5° (Epoch: 01 June)

Event Time Altitude Azimuth Distance (km) Brightness Sun altitude
Exits shadow 19:25:20 16° 149° (SSE) 1,600 5.1 -12.8°
Maximum altitude 19:28:14 35° 91° (E) 1,000 4.2 -13.1°
Drops below altitude 10° 19:32:11 10° 26° (NNE) 1,970 6.2 -13.7°
Sets 19:34:32 0° 18° (NNE) 2,880 7.2 -14.0°
